• în România
  • Lista ţărilor
  • Pe 7 zile
  • Temperatura apei
  • Hartă satelitară
  • Meteo pe hartă
  • Widget-uri
  • user-avatar
    Intrare

    Meteo pe oră la Shkoder

    Astăzi, 26 Aprilie, Miercuri

    Timp Temperatura Precipitaţii Vânt Presiune Umiditate
    00:00 +8°C° 0 mm 2 m/s 741 mmHg 94%
    01:00 +8°C° 0 mm 2 m/s 741 mmHg 94%
    02:00 +8°C° 0 mm 2 m/s 741 mmHg 92%
    03:00 +7°C° 0 mm 2 m/s 741 mmHg 90%
    04:00 +8°C° 0 mm 1 m/s 741 mmHg 88%
    05:00 +10°C° 0 mm 1 m/s 741 mmHg 81%
    06:00 +12°C° 0 mm 1 m/s 741 mmHg 73%
    07:00 +14°C° 0 mm 1 m/s 741 mmHg 66%
    08:00 +16°C° 0 mm 2 m/s 741 mmHg 59%
    09:00 +17°C° 0 mm 2 m/s 741 mmHg 52%
    10:00 +19°C° 0 mm 2 m/s 741 mmHg 45%
    11:00 +19°C° 0 mm 2 m/s 740 mmHg 44%
    12:00 +20°C° 0 mm 3 m/s 740 mmHg 43%
    13:00 +20°C° 0 mm 3 m/s 740 mmHg 43%
    14:00 +20°C° 0 mm 3 m/s 740 mmHg 46%
    15:00 +19°C° 0 mm 3 m/s 740 mmHg 49%
    16:00 +19°C° 0 mm 3 m/s 740 mmHg 52%
    17:00 +16°C° 0 mm 2 m/s 740 mmHg 63%
    18:00 +14°C° 0 mm 2 m/s 740 mmHg 74%
    19:00 +10°C° 0 mm 2 m/s 740 mmHg 85%
    20:00 +10°C° 0 mm 2 m/s 740 mmHg 84%
    21:00 +10°C° 0 mm 2 m/s 741 mmHg 83%
    22:00 +9°C° 0 mm 2 m/s 741 mmHg 81%
    23:00 +9°C° 0 mm 2 m/s 741 mmHg 81%

    Mâine, 27 Aprilie, Joi

    Timp Temperatura Precipitaţii Vânt Presiune Umiditate
    00:00 +9°C° 0 mm 2 m/s 741 mmHg 80%
    01:00 +9°C° 0 mm 2 m/s 741 mmHg 79%
    02:00 +9°C° 0 mm 2 m/s 740 mmHg 78%
    03:00 +9°C° 0 mm 2 m/s 740 mmHg 77%
    04:00 +9°C° 0 mm 2 m/s 740 mmHg 76%
    05:00 +12°C° 0 mm 2 m/s 740 mmHg 69%
    06:00 +14°C° 0 mm 1 m/s 740 mmHg 63%
    07:00 +18°C° 0 mm 1 m/s 740 mmHg 56%
    08:00 +19°C° 0 mm 1 m/s 740 mmHg 51%
    09:00 +20°C° 0 mm 2 m/s 740 mmHg 46%
    10:00 +23°C° 0 mm 2 m/s 740 mmHg 41%
    11:00 +23°C° 0 mm 2 m/s 740 mmHg 40%
    12:00 +24°C° 0 mm 2 m/s 740 mmHg 40%
    13:00 +24°C° 0 mm 3 m/s 739 mmHg 39%
    14:00 +24°C° 0 mm 3 m/s 739 mmHg 41%
    15:00 +22°C° 0 mm 3 m/s 739 mmHg 44%
    16:00 +21°C° 0 mm 3 m/s 738 mmHg 46%
    17:00 +19°C° 0 mm 2 m/s 738 mmHg 56%
    18:00 +16°C° 0 mm 2 m/s 739 mmHg 66%
    19:00 +14°C° 0 mm 1 m/s 739 mmHg 75%
    20:00 +13°C° 0 mm 2 m/s 739 mmHg 73%
    21:00 +13°C° 0 mm 2 m/s 739 mmHg 71%
    22:00 +13°C° 0 mm 2 m/s 739 mmHg 69%
    23:00 +13°C° 0 mm 2 m/s 739 mmHg 67%

    Poimâine, 28 Aprilie, Vineri

    Timp Temperatura Precipitaţii Vânt Presiune Umiditate
    00:00 +13°C° 0 mm 2 m/s 739 mmHg 66%
    01:00 +13°C° 0 mm 2 m/s 739 mmHg 65%
    02:00 +12°C° 0 mm 2 m/s 739 mmHg 66%
    03:00 +12°C° 0 mm 2 m/s 739 mmHg 66%
    04:00 +12°C° 0 mm 2 m/s 738 mmHg 67%
    05:00 +14°C° 0 mm 2 m/s 738 mmHg 62%
    06:00 +16°C° 0 mm 2 m/s 738 mmHg 58%
    07:00 +18°C° 0 mm 2 m/s 738 mmHg 54%
    08:00 +20°C° 0 mm 3 m/s 738 mmHg 49%
    09:00 +21°C° 0 mm 3 m/s 738 mmHg 44%
    10:00 +23°C° 0 mm 4 m/s 738 mmHg 39%
    11:00 +23°C° 0 mm 4 m/s 737 mmHg 40%
    12:00 +23°C° 0 mm 5 m/s 737 mmHg 41%
    13:00 +23°C° 0 mm 5 m/s 737 mmHg 42%
    14:00 +22°C° 0,1 mm 5 m/s 737 mmHg 48%
    15:00 +21°C° 0,1 mm 4 m/s 736 mmHg 53%
    16:00 +20°C° 0,1 mm 4 m/s 736 mmHg 58%
    17:00 +18°C° 0 mm 3 m/s 736 mmHg 65%
    18:00 +17°C° 0 mm 2 m/s 736 mmHg 72%
    19:00 +15°C° 0 mm 2 m/s 736 mmHg 78%
    20:00 +15°C° 0,1 mm 2 m/s 737 mmHg 78%
    21:00 +14°C° 0,1 mm 2 m/s 737 mmHg 78%
    22:00 +14°C° 0,1 mm 2 m/s 737 mmHg 78%
    23:00 +14°C° 0,1 mm 2 m/s 737 mmHg 79%

    29 Aprilie, Sâmbătă

    Timp Temperatura Precipitaţii Vânt Presiune Umiditate
    00:00 +14°C° 0,1 mm 2 m/s 737 mmHg 80%
    01:00 +13°C° 0,1 mm 2 m/s 737 mmHg 81%
    02:00 +13°C° 0,2 mm 2 m/s 737 mmHg 82%
    03:00 +13°C° 0,2 mm 2 m/s 736 mmHg 83%
    04:00 +13°C° 0,2 mm 2 m/s 736 mmHg 83%
    05:00 +14°C° 0,7 mm 2 m/s 736 mmHg 82%
    06:00 +15°C° 0,7 mm 2 m/s 737 mmHg 81%
    07:00 +16°C° 0,7 mm 2 m/s 737 mmHg 80%
    08:00 +16°C° 1,7 mm 2 m/s 737 mmHg 80%
    09:00 +16°C° 1,7 mm 2 m/s 737 mmHg 80%
    10:00 +17°C° 1,7 mm 2 m/s 737 mmHg 81%
    11:00 +16°C° 2,6 mm 2 m/s 737 mmHg 83%
    12:00 +16°C° 2,6 mm 2 m/s 737 mmHg 85%
    13:00 +16°C° 2,6 mm 1 m/s 737 mmHg 87%
    14:00 +16°C° 1,7 mm 2 m/s 737 mmHg 86%
    15:00 +16°C° 1,7 mm 2 m/s 737 mmHg 85%
    16:00 +16°C° 1,7 mm 2 m/s 738 mmHg 85%
    17:00 +16°C° 0,9 mm 2 m/s 738 mmHg 87%
    18:00 +15°C° 0,9 mm 1 m/s 738 mmHg 90%
    19:00 +14°C° 0,9 mm 1 m/s 738 mmHg 93%
    20:00 +14°C° 0,3 mm 1 m/s 739 mmHg 92%
    21:00 +14°C° 0,3 mm 2 m/s 739 mmHg 92%
    22:00 +14°C° 0,3 mm 2 m/s 739 mmHg 92%
    23:00 +14°C° 0,2 mm 2 m/s 739 mmHg 92%

    30 Aprilie, Duminică

    Timp Temperatura Precipitaţii Vânt Presiune Umiditate
    00:00 +13°C° 0,2 mm 2 m/s 739 mmHg 92%
    01:00 +12°C° 0,2 mm 3 m/s 739 mmHg 91%
    02:00 +12°C° 0 mm 3 m/s 739 mmHg 91%
    03:00 +12°C° 0 mm 3 m/s 739 mmHg 91%
    04:00 +12°C° 0 mm 3 m/s 739 mmHg 90%
    05:00 +12°C° 0 mm 3 m/s 739 mmHg 88%
    06:00 +13°C° 0 mm 3 m/s 739 mmHg 86%
    07:00 +14°C° 0 mm 3 m/s 739 mmHg 84%
    08:00 +17°C° 0 mm 3 m/s 739 mmHg 76%
    09:00 +19°C° 0 mm 3 m/s 739 mmHg 69%
    10:00 +21°C° 0 mm 2 m/s 739 mmHg 61%
    11:00 +23°C° 0,1 mm 2 m/s 738 mmHg 57%
    12:00 +24°C° 0,1 mm 3 m/s 738 mmHg 54%
    13:00 +25°C° 0,1 mm 3 m/s 737 mmHg 50%
    14:00 +24°C° 0,1 mm 3 m/s 737 mmHg 52%
    15:00 +24°C° 0,1 mm 3 m/s 737 mmHg 55%
    16:00 +24°C° 0,1 mm 3 m/s 737 mmHg 57%
    17:00 +21°C° 0,4 mm 2 m/s 737 mmHg 65%
    18:00 +19°C° 0,4 mm 2 m/s 737 mmHg 72%
    19:00 +17°C° 0,4 mm 2 m/s 737 mmHg 80%
    20:00 +16°C° 0,8 mm 2 m/s 737 mmHg 82%
    21:00 +16°C° 0,8 mm 2 m/s 737 mmHg 85%
    22:00 +16°C° 0,8 mm 2 m/s 738 mmHg 87%
    23:00 +15°C° 0,7 mm 1 m/s 738 mmHg 88%

    1 Mai, Luni

    Timp Temperatura Precipitaţii Vânt Presiune Umiditate
    00:00 +15°C° 0,7 mm 1 m/s 738 mmHg 89%
    01:00 +15°C° 0,7 mm 1 m/s 737 mmHg 90%
    02:00 +15°C° 0,2 mm 1 m/s 737 mmHg 91%
    03:00 +14°C° 0,2 mm 1 m/s 737 mmHg 91%
    04:00 +14°C° 0,2 mm 1 m/s 737 mmHg 92%
    05:00 +15°C° 0 mm 1 m/s 738 mmHg 88%
    06:00 +18°C° 0 mm 1 m/s 738 mmHg 84%
    07:00 +19°C° 0 mm 1 m/s 738 mmHg 79%
    08:00 +21°C° 0 mm 1 m/s 738 mmHg 72%
    09:00 +22°C° 0 mm 1 m/s 738 mmHg 65%
    10:00 +24°C° 0 mm 1 m/s 738 mmHg 58%
    11:00 +25°C° 0,1 mm 2 m/s 738 mmHg 57%
    12:00 +25°C° 0,1 mm 2 m/s 738 mmHg 56%
    13:00 +25°C° 0,1 mm 3 m/s 738 mmHg 55%
    14:00 +25°C° 0,3 mm 3 m/s 738 mmHg 58%
    15:00 +24°C° 0,3 mm 2 m/s 738 mmHg 62%
    16:00 +24°C° 0,3 mm 2 m/s 737 mmHg 65%
    17:00 +21°C° 0,2 mm 2 m/s 738 mmHg 74%
    18:00 +19°C° 0,2 mm 1 m/s 738 mmHg 83%
    19:00 +16°C° 0,2 mm 1 m/s 738 mmHg 92%
    20:00 +15°C° 0,1 mm 1 m/s 738 mmHg 92%
    21:00 +15°C° 0,1 mm 1 m/s 738 mmHg 92%
    22:00 +15°C° 0,1 mm 1 m/s 739 mmHg 92%
    23:00 +15°C° 0,1 mm 1 m/s 739 mmHg 92%
    Arată mai mult